{"data":{"norad_id":81405,"epoch":"2026-09-14T09:11:39.288768Z","epoch_age_seconds":546842,"freshness":"STALE","line1":"1 81405U          26257.38309362  .00001150  00000+0  88260-3 0  9997","line2":"2 81405  99.4490 314.8088 0159447 205.7089 153.6080 13.89596879600079","mean_motion":13.89596879,"eccentricity":0.0159447,"inclination_deg":99.449,"raan_deg":314.8088,"arg_perigee_deg":205.7089,"mean_anomaly_deg":153.608,"bstar":0.0008826,"rev_number":60007,"period_min":103.62717574872,"perigee_km":813.51713197687,"apogee_km":1046.57063545,"semimajor_km":7308.1808837134,"source":"CELESTRAK","updated_at":"2026-09-20T09:00:32.387915Z"}}